Location: Aiyekoto
(8.4333°N, 4.3667°E)
Time: 22:30:06
(UTC+00:00)

CZ-4B R/B - Pass Details

Date: 07 June 2020
Orbit: 392 x 463 km, 97.6° (Epoch: 10 July)

Event Time Altitude Azimuth Distance (km) Brightness Sun altitude
Exits shadow 04:37:25 10° 200° (SSW) 1,435 3.5 -11.2°
Reaches altitude 10° 04:37:27 10° 200° (SSW) 1,424 3.5 -11.2°
Maximum altitude 04:40:02 26° 260° (W) 813 2.1 -10.6°
Drops below altitude 10° 04:42:39 10° 319° (NW) 1,428 3.8 -10.1°
Sets 04:44:49 0° 332° (NNW) 2,289 5.0 -9.6°
